Regional Weather Roundup
Issued by NWS Sterling, VA

Home | Current Version | Previous Version | Graphics & Text | Print | Product List | Glossary On
Versions: 1 2 3 4 5 6 7 8 9 10 11 12 13 14 15 16 17 18 19 20 21 22 23 24 25 26 27 28 29 30 31 32 33 34 35 36 37 38 39 40 41 42 43 44 45 46 47 48 49 50
000
ASUS41 KLWX 260010
RWRLWX

REGIONAL WEATHER ROUNDUP
NATIONAL WEATHER SERVICE BALTIMORE MD/WASHINGTON DC
800 PM EDT WED MAY 25 2016

Note: "FAIR" indicates few or no clouds below 12,000 feet
with no significant weather and/or obstructions to visibility.
 TC=TEMPERATURE CELSIUS

 * =Non NWS site. Station does not report precipitation (e.g. rain,
    snow, etc.), thunder, or fog.

DCZ001-MDZ009-015-VAZ040>042-051-053>054-260100-
WASHINGTON METRO

CITY           SKY/WX    TMP DP  RH WIND       PRES   REMARKS
WASHINGTON NAT MOCLDY    78  56  46 S8        30.10S
DULLES         MOCLDY    79  54  41 S5        30.11R
ANDREWS AFB    CLEAR     78  55  44 SW6       30.10S
FT BELVOIR     FAIR      73  63  71 CALM      30.10S
QUANTICO         N/A     79  56  45 CALM      30.11R
COLLEGE PARK*  FAIR      81  50  34 SW3       30.09S
LEESBURG*      FAIR      81  59  47 S5        30.11S
MANASSAS*      CLEAR     79  63  57 CALM      30.10S

$$

MDZ006>007-011-014-260100-
BALTIMORE METRO

CITY           SKY/WX    TMP DP  RH WIND       PRES   REMARKS
BWI AIRPORT    MOCLDY    79  50  36 W6        30.09R
MD SCIENCE CTR   N/A     84  46  26 MISG      30.08R
MARTIN STATE   MOCLDY    75  63  64 CALM      30.10S
ANNAPOLIS      PTCLDY    81  53  37 CALM      30.09R
FORT MEADE*    PTCLDY    72  55  56 CALM      30.12R

$$

MDZ012-015-019>023-260100-
MARYLAND EASTERN SHORE

CITY           SKY/WX    TMP DP  RH WIND       PRES   REMARKS
OCEAN CITY     PTCLDY    76  55  48 SW6       30.12S
SALISBURY      PTCLDY    76  57  51 S6        30.12R
BAY BRIDGE AP* PTCLDY    81  57  44 S5        30.09S
CAMBRIDGE*     PTCLDY    77  55  47 CALM      30.11S
EASTON*        CLEAR     81  61  50 SW6       30.14S

$$

MDZ017>025-260100-
SOUTHERN MARYLAND

CITY           SKY/WX    TMP DP  RH WIND       PRES   REMARKS
PATUXENT RIVER MOCLDY    77  51  40 S8        30.11S
ST INIGOES     CLEAR     75  55  49 E8        30.10S
LEONARDTOWN*   CLEAR     77  54  44 CALM      30.13S

$$

MDZ003>005-260100-
NORTH CENTRAL MARYLAND

CITY           SKY/WX    TMP DP  RH WIND       PRES   REMARKS
FREDERICK*     CLEAR     81  57  44 CALM      30.12S
HAGERSTOWN APT CLEAR     80  53  39 S7        30.09S
WESTMINSTER*   CLEAR     82  75  78 S5        30.11F

$$

MDZ501>502-260100-
WESTERN MARYLAND

CITY           SKY/WX    TMP DP  RH WIND       PRES   REMARKS
OAKLAND*       CLEAR     68  45  42 W6        30.22S
CUMBERLAND*    CLEAR     81  52  36 SW3       30.13S

$$

VAZ025>031-260100-
SHENANDOAH VALLEY

CITY           SKY/WX    TMP DP  RH WIND       PRES   REMARKS
WINCHESTER*    FAIR      75  61  60 CALM      30.11S
FRONT ROYAL*   FAIR      77  55  47 CALM      30.10S
LURAY*         FAIR      79  59  50 CALM      30.12S
NEW MARKET*    FAIR      70  60  72 CALM      30.10S
STAUNTON*      FAIR      76  56  50 CALM      30.16R
WAYNESBORO*    FAIR      76  53  44 S8        30.15S

$$

WVZ021-048>050-054>055-260100-
EASTERN WEST VIRGINIA PANHANDLE

CITY           SKY/WX    TMP DP  RH WIND       PRES   REMARKS
MARTINSBURG    FAIR      75  57  53 SE3       30.09S
PETERSBURG*    FAIR      73  63  68 CALM      30.13R

$$

VAZ036>039-050-260100-
CENTRAL FOOTHILLS

CITY           SKY/WX    TMP DP  RH WIND       PRES   REMARKS
CHARLOTTESVILL FAIR      77  57  50 S5        30.12R
CULPEPER*      FAIR      75  63  65 CALM      30.12R
ORANGE*        FAIR      77  61  57 NE3       30.14R
GORDONSVILLE*  FAIR      73  63  70 CALM      30.11S
WARRENTON*     FAIR      75  56  51 CALM      30.11R

$$

VAZ055>057-260100-
NORTH AND CENTRAL PIEDMONT

CITY           SKY/WX    TMP DP  RH WIND       PRES   REMARKS
FREDERICKSBRG* FAIR      79  63  57 CALM      30.10R
STAFFORD*      FAIR      72  62  71 CALM      30.15R

$$

NCZ024-NYZ072-PAZ021-071-VAZ022-071-260100-
OTHER REGIONAL OBSERVATIONS

CITY           SKY/WX    TMP DP  RH WIND       PRES   REMARKS
NEW YORK CITY  CLEAR     83  42  23 W3        30.06R
PHILADELPHIA   PTCLDY    82  48  30 SW10      30.08R
PITTSBURGH     CLOUDY    79  51  37 SW5       30.11S
ROANOKE        FAIR      78  56  46 SE8       30.17R
RICHMOND       MOCLDY    78  57  48 SW6       30.12R
RALEIGH        MOCLDY    78  59  51 CALM      30.15S

$$

ANZ530>537-260100-
MARINE OBSERVATIONS

STATION/POSITION TIME  TEMP    WIND        PRES
                       AIR SEA DIR/SP/G
                 (UTC) (F)     (DEG/KT/KT) (MB)
THOMAS PT LIGHT  0000   72 65  190/ 15/ 16 1020.3R
BALT KEY BRIDGE  2300                      1018.7F
COVE POINT       2300                      1020.2F
LEWISETTA        2300      69              1019.2F
SOLOMONS ISLAND  2300      64                N/A
PINEY POINT      2300          140/ 11/ 11   N/A

$$




USA.gov is the U.S. government's official web portal to all federal, state and local government web resources and services.